Home   Weather   Constanța   Past weeks

Flag for Romania Past Weather in Constanța, Romania — Yesterday and Last 2 Weeks

Now
70 °F

Sunny.


Feels Like: 76 °F
Forecast: 62 / 80 °F
Wind: 2 mph from Northeast

Location: Constanta

Current Time: May 30, 2017 at 12:08:55 pm

Latest Report: May 30, 2017 at 11:00 am


Visibility: 6 mi

Pressure: 29.97 "Hg

Humidity: 60%

Dew Point: 55 °F

Location of ConstanțaLocation

Past Weather in Constanța — Graph

°F

Constanța Temperature Yesterday

Maximum temperature yesterday: 72 °F (at 5:00 pm)
Minimum temperature yesterday: 56 °F (at 6:00 am)
Average temperature yesterday: 65 °F

High & Low Weather Summary for the Past Weeks

 TemperatureHumidityPressure
High75 °F (May 20, 3:00 pm)98% (May 28, 1:00 am)30.25 "Hg (May 28, 1:00 am)
Low50 °F (May 19, 7:00 am)29% (May 20, 2:00 pm)29.75 "Hg (May 20, 10:00 pm)
Average62 °F70%30.03 "Hg
* Reported May 15 11:00 am — May 30 11:00 am, Constanța. Weather by CustomWeather, © 2017

Note: Actual official high and low records may vary slightly from our data, if they occured in-between our weather recording intervals... More about our weather records

Advertising

Constanța Weather History for the Previous 24 Hours

Scroll right to see more
 ConditionsComfort  
Time TempWeatherWind HumidityBarometerVisibility
11:00 am
Tue, May 30
70 °FSunny.2 mph60%29.97 "Hg6 mi
10:00 am72 °FSunny.1 mph46%29.97 "Hg6 mi
9:00 am69 °FSunny.No wind52%29.97 "Hg6 mi
8:00 am64 °FSunny.1 mph54%29.96 "Hg6 mi
7:00 am58 °FSunny.No wind64%29.96 "Hg6 mi
6:00 am57 °FSunny.1 mph69%29.97 "Hg6 mi
5:00 am57 °FClear.No wind69%29.98 "Hg6 mi
4:00 am59 °FClear.1 mph66%29.99 "Hg6 mi
3:00 am60 °FClear.1 mph64%29.99 "Hg6 mi
2:00 am61 °FClear.1 mph64%30.00 "Hg6 mi
1:00 am61 °FClear.No wind60%30.01 "Hg6 mi
12:00 am62 °FClear.No wind61%30.01 "Hg6 mi
11:00 pm
Mon, May 29
64 °FClear.1 mph59%30.02 "Hg6 mi
10:00 pm65 °FClear.No wind51%30.02 "Hg6 mi
9:00 pm68 °FClear.No wind44%30.02 "Hg6 mi
8:00 pm69 °FSunny.2 mph56%30.03 "Hg6 mi
7:00 pm69 °FPassing clouds.3 mph68%30.04 "Hg6 mi
6:00 pm69 °FPassing clouds.2 mph69%30.06 "Hg6 mi
5:00 pm72 °FPassing clouds.1 mph51%30.06 "Hg6 mi
4:00 pm71 °FPassing clouds.1 mph60%30.08 "Hg6 mi
3:00 pm71 °FScattered clouds.1 mph65%30.09 "Hg6 mi
2:00 pm70 °FScattered clouds.1 mph66%30.10 "Hg6 mi
1:00 pm70 °FPassing clouds.1 mph66%30.11 "Hg6 mi
12:00 pm70 °FPassing clouds.1 mph65%30.12 "Hg6 mi
Weather by CustomWeather, © 2017

See weather overviewHow to use our weather pages